Location: Ch�tillon
(48.8024°N, 2.2935°E)
Time: 17:43:22
(UTC+00:00)

RS-15 - Pass Details

Date: 28 June 2022
Orbit: 1881 x 2163 km, 64.8° (Epoch: 11 August)

Event Time Altitude Azimuth Distance (km) Brightness Sun altitude
Rises 01:30:41 0° 321° (NW) 5,700 10.9 -14.7°
Reaches altitude 10° 01:34:32 10° 314° (NW) 4,688 10.3 -14.5°
Maximum altitude 01:45:09 37° 254° (WSW) 2,989 8.7 -13.8°
Enters shadow 01:53:54 15° 198° (SSW) 4,155 9.1 -13.1°
